Regional Weather Roundup
Issued by NWS Cleveland, OH

Home | Current Version | Previous Version | Text Only | Print | Product List | Glossary Off
Versions: 1 2 3 4 5 6 7 8 9 10 11 12 13 14 15 16 17 18 19 20 21 22 23 24 25 26 27 28 29 30 31 32 33 34 35 36 37 38 39 40 41 42 43 44 45 46 47 48 49 50

000
ASUS41 KCLE 290602
RWRCLE
OHIO REGIONAL WEATHER ROUNDUP
NATIONAL WEATHER SERVICE CLEVELAND, OH
200 AM EDT SUN MAR 29 2015

NOTE: "FAIR" INDICATES FEW OR NO CLOUDS BELOW 12,000 FEET WITH NO
SIGNIFICANT WEATHER AND/OR OBSTRUCTIONS TO VISIBILITY.

OHZ001>008-015>018-024>027-034-035-043-044-290700-
   NORTHWEST OHIO

CITY           SKY/WX    TMP DP  RH WIND       PRES   REMARKS
DEFIANCE       CLEAR     24  15  68 S3        30.32F
FINDLAY        FAIR      24  15  68 S5        30.32S WCI  18
TOLEDO EXPRESS CLEAR     25  13  60 SW5       30.30F WCI  19
TOLEDO EXEC    CLEAR     23  14  68 SW6       30.32F WCI  16
LIMA           CLEAR     24  16  71 S6        30.32S WCI  17
$$

OHZ009>014-019>023-028>033-038-089-290700-
   NORTHEAST OHIO

CITY           SKY/WX    TMP DP  RH WIND       PRES   REMARKS
CLE-HOPKINS    CLEAR     21  12  68 S6        30.35S WCI  13
CLE-LAKEFRONT  CLEAR     25  11  55 S5        30.33S WCI  19
CUY CO. ARPT   NOT AVBL
LORAIN-ELYRIA  CLEAR     21  14  74 SW5       30.33R WCI  15
ASHTABULA      CLEAR     19  13  77 CALM      30.31R
AKRON-CANTON   CLEAR     20   9  62 W3        30.31R
WOOSTER        CLEAR     19  14  81 S3        30.32R
MANSFIELD      CLEAR     20  11  68 SW7       30.31R WCI  11
YOUNGSTOWN     CLEAR     18  10  71 W3        30.29R
$$

OHZ042-051>053-060>062-070>072-077>081-290700-
  SOUTHWEST OHIO

CITY           SKY/WX    TMP DP  RH WIND       PRES   REMARKS
CINC-COVINGTON CLEAR     27  13  55 SE3       30.35S
CINC-LUNKEN    CLEAR     23  18  81 CALM      30.38F
HAMILTON       CLEAR     20  15  81 CALM      30.37S
DAYTON         CLEAR     26  14  60 SE5       30.34S WCI  20
WRIGHT-PAT AFB CLEAR     22  15  76 CALM      30.35R
DAYTON GENERAL CLEAR     25  13  60 SE3       30.34R
WILMINGTON     CLEAR     23  16  74 SE3       30.34S
$$

OHZ036-037-039>041-045>050-054>059-063>069-073>076-082>088-290700-
  CENTRAL AND SOUTHEAST OHIO

CITY           SKY/WX    TMP DP  RH WIND       PRES   REMARKS
COLUMBUS       CLEAR     21  15  78 CALM      30.35S
OSU AIRPORT    CLEAR     21  13  71 SW3       30.35R
BOLTON FIELD   CLEAR    N/A N/A N/A CALM      30.36R
RICKENBACK AFB NOT AVBL
NEWARK         CLEAR     19  14  81 CALM      30.34S
MARION         CLEAR     19  12  74 SW6       30.34R WCI  11
LANCASTER      CLEAR     19  14  81 SE3       30.36S
ZANESVILLE     CLEAR     18  12  77 CALM      30.34S
NEW PHILLY     CLEAR     18  12  77 CALM      30.34S
$$



USA.gov is the U.S. government's official web portal to all federal, state and local government web resources and services.